Temperature
16 16 16 16 16 16 15 15 15 14 13 13 13 13 13 13 13 13 13 13 13 13 13 13 13 13 13 13 13 13 13 13 13 13 12 12 12 12
16 16 16 15 15 15 15 15 15 15 13 13 13 13 13 13 13 13 13 13 13 13 12 12 12 12 12 12 12 12 12 12 12 12 12 12 12 11
16 16 15 15 15 15 15 15 14 14 14 13 13 12 12 12 12 12 12 12 12 12 12 12 12 12 11 11 11 11 11 11 11 11 11 11 11 11
15 15 15 15 15 15 14 14 14 14 14 13 12 12 12 12 12 12 12 12 11 11 11 11 11 11 11 11 11 11 11 11 11 10 10 10 10 10
15 15 15 15 15 14 14 14 14 13 13 13 12 12 12 12 11 11 11 11 11 11 11 11 10 10 10 10 10 10 10 10 10 10 10 10 10 10
15 14 14 14 14 14 14 14 13 13 13 13 12 12 11 11 11 11 11 11 10 10 10 10 10 10 10 10 10 9 9 9 9 9 9 9 9 9
14 14 14 14 14 14 13 13 13 13 13 12 12 12 11 11 11 11 11 10 10 10 10 9 9 9 9 9 9 9 9 9 9 9 8 8 8 8
14 14 14 13 13 13 13 13 13 13 13 12 12 12 11 11 11 11 11 10 10 9 9 9 9 9 9 9 8 8 8 8 8 8 8 8 8 8
14 13 13 13 13 13 13 13 12 12 12 12 12 12 11 11 11 10 10 10 10 9 9 9 9 9 8 8 8 8 8 8 8 8 7 7 7 7
13 13 13 13 13 12 12 12 12 12 11 11 11 11 11 11 11 11 10 10 9 9 9 9 8 8 8 8 8 8 8 8 7 7 7 7 7 7
13 13 12 12 12 12 12 12 12 11 11 11 11 11 11 10 10 10 10 10 9 9 9 8 8 8 8 8 8 8 7 7 7 7 7 7 7 7
13 12 12 12 12 12 12 12 11 11 11 11 11 10 10 10 10 10 10 9 9 9 8 8 8 8 8 8 8 7 7 7 7 7 7 7 6 6
12 12 12 12 12 11 11 11 11 11 11 10 10 10 10 10 10 9 9 9 9 9 9 8 8 8 8 8 7 7 7 7 7 7 7 6 6 6
12 12 11 11 11 11 11 11 11 10 10 10 10 10 10 9 9 9 9 9 9 9 9 8 8 8 8 8 7 7 7 7 7 7 7 6 6 6
12 11 11 11 11 11 11 11 10 10 10 10 10 9 9 9 9 9 9 9 9 9 8 8 8 8 8 8 7 7 7 7 7 7 7 6 6 6
11 11 11 11 11 11 11 10 10 10 10 9 9 9 9 9 9 9 9 8 8 8 8 8 8 8 8 8 7 7 7 7 7 7 7 6 6 6
11 11 11 11 11 10 10 10 10 10 9 9 9 9 9 9 8 8 8 8 8 8 8 8 8 8 7 7 7 7 7 7 7 7 6 6 6 6
11 11 11 10 10 10 10 10 9 9 9 9 9 9 9 8 8 8 8 8 8 8 8 7 7 7 7 7 7 7 7 7 7 7 6 6 6 6
11 11 10 10 10 10 10 9 9 9 9 9 9 9 8 8 8 8 8 8 8 7 7 7 7 7 7 7 7 7 7 7 7 6 6 6 6 6
10 10 10 10 10 10 9 9 9 9 9 9 8 8 8 8 8 8 8 7 7 7 7 7 7 7 7 7 7 7 7 6 6 6 6 6 6 6
10 10 10 10 9 9 9 9 9 9 9 8 8 8 8 8 8 8 7 7 7 7 7 7 7 7 7 7 7 7 7 6 6 6 6 6 6 6
10 10 10 9 9 9 9 9 9 9 8 8 8 8 8 8 8 8 7 7 7 7 7 7 7 7 7 7 6 6 6 6 6 6 6 6 5 5
10 10 10 9 9 9 9 9 9 8 8 8 8 8 8 8 7 7 7 7 7 7 7 7 7 7 6 6 6 6 6 6 6 6 6 6 5 5
Wind_Speed
1 1 1 1 1 2 2 3 3 2 1 1 2 3 5 8 9 9 10 13 13 13 13 12 12 11 11 11 10 10 10 9 8 5 4 3 3 4
2 3 2 2 2 1 1 1 2 3 2 2 2 2 5 6 9 9 10 12 14 14 14 14 14 14 13 12 12 11 11 11 10 10 8 7 6 5
4 4 3 3 3 2 2 2 3 3 5 2 2 3 4 5 6 8 10 10 12 14 14 14 14 14 14 14 13 13 13 12 12 12 12 11 10 9
4 4 4 3 4 3 3 3 3 3 5 5 2 3 3 4 4 5 7 9 10 13 13 13 14 14 14 14 14 14 14 14 13 13 13 13 12 12
4 4 3 4 4 3 4 4 4 4 4 5 3 2 2 3 4 5 6 6 8 9 11 12 13 13 13 13 13 14 14 13 13 13 13 13 13 13
4 4 4 4 3 4 4 5 5 6 6 6 5 3 3 2 3 4 4 4 4 6 8 9 11 13 13 13 12 13 13 13 13 13 13 14 14 13
5 4 4 5 6 4 4 4 5 5 5 5 5 3 3 3 2 2 3 3 3 4 3 5 6 7 8 10 11 11 12 13 13 13 13 13 12 12
4 4 4 6 7 8 8 7 6 6 5 5 4 4 3 3 2 3 3 3 2 2 2 3 3 3 4 6 8 9 10 10 11 11 11 11 11 11
4 4 4 5 6 5 7 9 8 7 5 4 5 4 4 4 4 4 3 3 2 1 2 2 2 2 2 4 5 6 7 7 8 8 8 9 9 9
5 4 4 4 4 4 6 6 6 5 4 3 3 3 3 4 5 4 4 4 3 2 1 1 1 1 1 2 3 3 4 5 5 6 6 6 6 7
5 4 4 4 4 5 6 6 5 4 6 8 7 6 7 8 7 5 5 4 2 1 1 1 0 0 0 1 2 2 2 2 3 4 4 5 5 5
3 4 5 4 4 5 5 5 5 3 3 5 6 7 6 6 6 4 4 3 2 1 0 1 1 0 0 0 1 2 1 2 2 2 2 3 3 3
2 2 3 5 6 5 4 3 4 4 4 4 4 4 4 4 3 3 2 3 2 1 1 2 1 0 0 0 1 1 1 1 2 2 2 3 2 1
2 1 2 4 6 5 4 5 6 6 4 4 4 3 2 2 1 1 2 2 1 1 2 3 2 2 1 0 1 1 1 1 2 2 3 3 3 3
2 3 3 5 5 5 5 6 5 4 4 3 3 1 1 0 1 1 2 3 4 3 2 2 2 2 2 1 0 0 1 1 2 2 3 2 2 2
3 3 5 6 5 5 4 4 3 3 3 2 1 1 1 1 2 1 1 2 2 2 4 3 1 2 2 1 1 1 1 1 2 2 3 3 3 3
4 3 3 2 3 2 2 2 2 2 2 1 2 1 1 1 1 1 1 1 1 1 1 2 3 1 1 2 1 2 2 2 2 2 2 2 3 4
5 3 2 2 2 2 1 1 0 1 1 1 2 2 1 1 1 1 1 1 1 0 0 1 1 1 1 1 3 3 2 2 2 2 2 2 4 4
3 3 3 3 2 2 2 2 1 1 1 2 2 2 2 1 1 1 1 0 1 1 1 1 1 1 1 3 2 4 3 2 2 2 2 3 4 5
3 3 3 3 3 3 3 2 2 2 1 2 2 2 2 2 2 2 2 2 2 2 2 1 2 2 3 3 3 3 5 4 2 3 3 3 4 6
4 4 4 4 3 3 3 2 2 2 2 2 2 2 2 2 2 2 2 3 2 2 3 4 4 4 3 1 2 3 2 5 6 4 3 3 3 3
5 5 4 4 4 3 3 2 2 2 2 2 3 3 3 3 3 3 3 3 3 4 4 4 2 1 2 3 4 4 3 3 4 5 6 6 3 3
5 5 4 4 4 4 4 4 4 3 3 3 3 3 3 3 3 3 3 3 3 3 3 3 2 1 2 3 4 4 4 4 3 3 4 6 8 10
Wind_Direction
34 58 68 47 110 141 157 170 169 171 120 54 43 36 54 63 63 67 69 71 71 70 68 67 68 68 67 68 66 61 57 53 55 58 63 68 74 66
52 68 62 54 73 96 147 152 158 159 138 82 63 52 61 72 68 72 73 72 70 72 71 71 70 68 66 67 66 63 61 60 60 63 64 65 69 74
50 65 63 65 73 65 85 100 105 118 127 102 70 64 63 72 70 73 73 72 71 71 74 74 73 70 68 66 65 65 65 64 63 62 62 63 62 61
52 61 59 72 71 69 83 94 101 106 129 127 94 70 69 83 82 78 75 76 74 71 73 73 72 71 69 68 67 66 65 64 64 63 61 60 62 62
62 67 66 80 77 76 84 92 98 104 108 123 114 88 79 92 88 80 74 69 75 72 70 69 70 70 68 67 65 64 64 64 64 64 63 60 60 60
57 61 65 78 91 94 94 96 103 106 108 115 115 105 99 97 103 98 82 63 66 65 66 68 68 68 66 65 65 65 66 66 65 64 64 63 62 60
52 51 59 72 77 92 105 109 114 115 116 117 119 115 117 130 127 124 110 92 64 54 65 58 57 57 55 57 60 64 66 67 67 66 65 63 61 59
55 45 53 60 72 79 90 98 110 126 134 134 135 144 154 149 135 138 132 120 98 43 69 57 51 56 46 53 56 63 66 66 65 65 64 61 57 55
59 52 55 56 67 84 82 78 77 85 109 144 149 162 168 171 157 146 138 124 114 100 99 70 46 52 39 51 55 61 66 67 66 65 62 57 53 50
55 59 66 54 65 90 94 83 71 63 70 102 135 154 157 165 165 154 142 116 92 81 90 93 48 33 18 25 42 57 63 65 62 60 57 50 48 49
52 54 64 65 65 93 101 96 79 60 66 76 86 97 106 115 129 125 122 123 113 99 50 90 73 5 356 360 1 17 38 49 44 45 46 43 42 41
58 49 55 71 77 96 111 112 100 77 71 69 69 77 88 100 108 123 144 143 126 140 138 128 106 69 52 348 341 353 1 7 12 24 26 25 25 25
87 58 45 64 79 86 100 113 129 121 99 90 83 79 79 79 79 92 125 148 148 143 168 163 151 128 113 302 312 325 330 328 337 336 346 346 337 321
129 104 70 79 84 88 97 104 108 105 102 95 88 81 82 80 64 58 101 117 138 188 185 173 160 165 153 156 297 318 316 308 304 310 325 334 330 314
136 126 100 91 87 82 91 105 109 109 108 103 103 87 61 23 59 64 61 70 68 61 96 172 166 160 170 186 229 292 299 305 301 300 307 310 304 309
119 98 86 82 81 79 78 80 94 112 123 126 123 93 73 83 76 64 71 70 70 49 45 62 128 162 170 180 188 239 273 281 305 308 301 294 289 277
130 102 88 87 83 72 67 69 80 95 102 108 117 111 103 93 67 58 85 94 91 67 28 24 27 50 191 184 214 258 280 288 288 296 297 299 293 286
128 129 135 142 153 162 157 128 103 137 156 157 148 150 152 145 118 88 108 129 154 237 272 329 5 29 15 248 222 248 274 286 291 282 267 281 293 294
144 166 176 184 190 194 197 197 207 221 184 180 178 177 172 172 173 179 178 201 242 256 263 246 207 204 294 306 294 221 237 275 283 283 272 266 276 287
185 191 200 203 203 209 214 219 218 187 173 185 191 193 189 192 204 217 223 236 247 257 266 255 239 235 248 274 282 276 239 237 259 280 289 288 284 286
200 207 209 207 208 210 212 208 204 193 186 189 201 206 206 207 224 236 241 240 242 251 263 268 262 245 234 233 269 288 276 249 239 248 268 289 300 300
205 207 212 211 206 204 201 190 195 206 204 208 216 219 217 215 225 236 242 247 252 256 264 276 285 216 208 238 267 279 292 306 294 275 258 242 265 280
211 209 209 207 206 202 200 197 201 212 216 219 222 221 216 219 228 234 239 245 255 263 273 278 274 240 242 250 265 277 289 302 308 303 301 291 277 277
Height
1537 1537 1536 1536 1537 1537 1537 1538 1539 1539 1540 1540 1541 1541 1541 1541 1541 1541 1540 1540 1539 1539 1539 1538 1538 1537 1537 1537 1537 1536 1536 1536 1536 1536 1536 1536 1536 1536
1536 1536 1535 1535 1535 1535 1536 1536 1537 1538 1538 1539 1540 1541 1541 1541 1541 1541 1540 1540 1539 1539 1539 1539 1538 1537 1537 1536 1536 1536 1536 1535 1535 1534 1534 1534 1534 1534
1536 1535 1535 1535 1535 1535 1535 1535 1536 1537 1537 1538 1540 1541 1541 1541 1541 1541 1541 1540 1540 1540 1540 1539 1539 1538 1537 1536 1536 1536 1535 1535 1534 1533 1533 1533 1532 1532
1535 1535 1535 1534 1534 1534 1534 1535 1535 1536 1537 1537 1539 1540 1541 1542 1542 1542 1542 1541 1541 1541 1541 1540 1539 1539 1538 1537 1537 1536 1535 1535 1533 1533 1533 1532 1532 1531
1536 1535 1535 1535 1534 1534 1534 1535 1535 1536 1537 1537 1539 1540 1541 1542 1542 1542 1542 1542 1542 1542 1542 1541 1540 1540 1539 1539 1538 1537 1536 1535 1534 1533 1533 1532 1531 1531
1536 1536 1535 1535 1534 1534 1535 1535 1536 1536 1537 1538 1539 1540 1541 1542 1542 1542 1543 1543 1543 1543 1543 1542 1542 1541 1541 1540 1539 1539 1537 1536 1535 1534 1533 1532 1531 1531
1537 1536 1536 1536 1535 1535 1535 1536 1536 1537 1538 1538 1539 1540 1541 1541 1542 1543 1543 1544 1544 1544 1544 1544 1543 1543 1542 1541 1541 1540 1539 1537 1536 1535 1534 1533 1532 1531
1537 1537 1536 1536 1536 1536 1536 1537 1537 1538 1538 1539 1539 1540 1541 1542 1542 1543 1543 1544 1544 1545 1545 1545 1545 1544 1543 1543 1542 1541 1540 1539 1537 1536 1535 1535 1534 1532
1537 1537 1537 1537 1537 1537 1537 1538 1538 1539 1539 1540 1540 1540 1541 1542 1542 1543 1544 1544 1544 1545 1545 1545 1545 1545 1545 1544 1543 1542 1541 1540 1539 1538 1537 1536 1535 1534
1538 1538 1538 1538 1538 1538 1538 1538 1539 1539 1540 1540 1541 1541 1542 1542 1543 1544 1544 1544 1545 1545 1545 1545 1545 1545 1545 1545 1544 1543 1542 1541 1540 1539 1538 1537 1536 1534
1539 1539 1539 1539 1539 1539 1539 1539 1539 1540 1540 1541 1541 1542 1542 1543 1543 1544 1544 1544 1544 1545 1545 1545 1545 1545 1545 1545 1544 1544 1543 1542 1541 1540 1539 1538 1536 1535
1540 1540 1540 1540 1540 1540 1540 1540 1540 1541 1541 1541 1542 1542 1543 1543 1544 1544 1544 1544 1544 1545 1545 1545 1545 1545 1545 1544 1544 1543 1543 1542 1541 1540 1539 1538 1537 1535
1541 1541 1541 1541 1540 1540 1541 1541 1541 1542 1542 1542 1542 1543 1543 1543 1544 1544 1544 1545 1545 1545 1545 1545 1544 1544 1544 1544 1543 1543 1542 1542 1541 1540 1539 1538 1536 1535
1541 1541 1541 1541 1541 1541 1541 1541 1542 1542 1542 1543 1543 1543 1543 1543 1544 1544 1544 1544 1545 1545 1545 1545 1544 1544 1543 1543 1543 1542 1542 1541 1540 1539 1538 1537 1536 1535
1541 1541 1541 1541 1541 1541 1542 1542 1542 1542 1543 1543 1543 1543 1543 1544 1544 1544 1544 1544 1544 1544 1544 1544 1544 1543 1543 1543 1542 1541 1541 1540 1539 1538 1537 1536 1535 1534
1540 1540 1541 1541 1541 1541 1541 1541 1541 1542 1542 1542 1542 1543 1543 1543 1543 1543 1543 1544 1543 1543 1543 1543 1543 1543 1542 1542 1541 1540 1540 1539 1538 1537 1536 1535 1534 1533
1539 1539 1540 1540 1540 1541 1541 1541 1541 1541 1541 1542 1542 1542 1542 1542 1542 1542 1542 1542 1542 1542 1542 1542 1542 1541 1541 1541 1540 1539 1538 1538 1537 1536 1534 1533 1532 1531
1538 1538 1538 1539 1539 1540 1540 1540 1540 1540 1541 1541 1541 1541 1541 1542 1542 1542 1541 1541 1541 1541 1541 1541 1540 1540 1540 1539 1539 1537 1537 1536 1535 1534 1532 1531 1530 1529
1536 1536 1537 1537 1538 1538 1539 1539 1539 1539 1539 1540 1540 1541 1541 1541 1541 1540 1540 1540 1540 1540 1539 1539 1538 1538 1537 1536 1536 1536 1535 1534 1532 1531 1530 1529 1527 1526
1534 1534 1535 1536 1536 1536 1537 1537 1537 1537 1538 1538 1539 1539 1539 1539 1539 1538 1538 1538 1538 1537 1537 1537 1536 1536 1535 1535 1534 1533 1532 1531 1530 1528 1527 1526 1524 1523
1531 1532 1533 1533 1534 1534 1535 1535 1535 1535 1536 1536 1537 1537 1537 1537 1536 1536 1536 1536 1535 1535 1534 1534 1534 1533 1533 1532 1531 1530 1529 1528 1527 1526 1524 1522 1521 1519
1528 1529 1530 1531 1531 1532 1532 1532 1533 1533 1534 1534 1534 1534 1534 1534 1534 1534 1533 1533 1532 1532 1531 1531 1531 1530 1530 1529 1528 1527 1526 1525 1524 1522 1521 1520 1518 1515
1525 1526 1527 1527 1528 1529 1529 1530 1530 1531 1531 1531 1531 1532 1532 1531 1531 1531 1530 1530 1529 1529 1528 1528 1527 1527 1526 1525 1524 1523 1522 1521 1520 1518 1517 1516 1515 1513